Regional Weather Roundup
Issued by NWS

Home | Current Version | Previous Version | Text Only | Print | Product List | Glossary Off
Versions: 1 2 3 4 5 6 7 8 9 10 11 12 13 14 15 16 17 18 19 20 21 22 23 24 25 26 27

000
ASUS45 KTFX 200410
RWRMT
MONTANA REGIONAL WEATHER ROUNDUP
NATIONAL WEATHER SERVICE GREAT FALLS MT
900 PM MST SUN FEB 19 2017

NOTE: "FAIR" INDICATES FEW OR NO CLOUDS BELOW 12000 FEET WITH NO
SIGNIFICANT WEATHER AND/OR OBSTRUCTIONS TO VISIBILITY.

MTZ001>007-043-200500-
WEST OF THE DIVIDE

CITY           SKY/WX    TMP DP  RH WIND       PRES   REMARKS
KALISPELL      CLOUDY    35  32  88 CALM      29.65R
MISSOULA       LGT RAIN  34  33  96 SW5       29.73R
BUTTE          CLOUDY    33  23  66 NE5       29.68R
MULLAN PASS    MOCLDY    24  23  96 VRB6      29.61R WCI  17
ANACONDA         N/A     34  21  60 S7        29.67R WCI  28
DEER LODGE       N/A     34  27  75 SE5       29.68R
EUREKA           N/A     37  30  75 SE8       29.61R WCI  31
HAMILTON         N/A     36  27  69 S5        29.69R
LIBBY            N/A     32  30  93 CALM      29.64R
RONAN            N/A     36  29  76 E3        29.75R
$$

MTZ008-052>055-200500-
SOUTHWEST MONTANA

CITY           SKY/WX    TMP DP  RH WIND       PRES   REMARKS
BOZEMAN        CLOUDY    36  30  79 S16       29.69R WCI  26
DILLON         CLEAR     33  21  61 SW13      29.70R WCI  24
W YELLOWSTONE  CLOUDY    28  27  93 SW10G17   29.78R WCI  19
ENNIS          CLOUDY    36  27  69 SE17      29.77R WCI  25
THREE FORKS      N/A     39  -5  15 S12       29.69R WCI  32
$$

MTZ009-010-012-014-046-048-049-054-200500-
EAST SLOPES AND CENTRAL MONTANA

CITY           SKY/WX    TMP DP  RH WIND       PRES   REMARKS
CUT BANK       CLOUDY    32  23  69 SW10      29.55R WCI  24
GREAT FALLS    CLOUDY    37  25  61 SW10      29.60R WCI  30
MALMSTROM AFB  CLOUDY    40  24  51 SW6       29.59R
HELENA         PTCLDY    35  29  78 NE8       29.63R WCI  29
AUGUSTA        MOCLDY    37  24  61 SW13      29.57S WCI  28
BOWMANS CRNR   CLOUDY    33  29  86 S7        29.58S WCI  27
CHOTEAU          N/A     39  23  52 SW13      29.58S WCI  32
POWER          MOCLDY    32  27  80 SW7       29.59R WCI  26
RAYNESFORD     MOCLDY    40  26  57 SW16      29.59R
ULM            LGT RAIN  38  32  77 MISG      29.63R
$$

MTZ011-013-016-021-045-047-050-051-200500-
NORTH CENTRAL MONTANA

CITY           SKY/WX    TMP DP  RH WIND       PRES   REMARKS
HAVRE          PTCLDY    31  27  85 CALM      29.57R
N BAR RANCH    MOCLDY    32  25  74 CALM      29.63R
CHINOOK          N/A     34  28  80 S3        29.58R
DENTON         MOCLDY    36  25  65 SW15      29.56R WCI  26
FORT BENTON      N/A    N/A N/A N/A MISG      29.59R
GEYSER         MOCLDY    40  26  57 S18       29.58S
GRASS RANGE    MOCLDY    36  30  77 W6        29.57R WCI  31
JUDITH GAP     MOCLDY    36  25  64 W14       29.61R WCI  27
ROY            MOCLDY    38  27  65 MISG      29.57S
STANFORD       MOCLDY    38  29  71 W20       29.60S WCI  27
WINIFRED         N/A     42  26  54 SW5       29.58S
$$

MTZ017>020-022>027-061-062-200500-
NORTHEAST MONTANA

CITY           SKY/WX    TMP DP  RH WIND       PRES   REMARKS
GLASGOW        FOG       29  28  96 NW6       29.57R VSB 1/4 WCI  23
JORDAN           N/A     33  29  85 W5        29.58R
SIDNEY         CLOUDY    34  32  92 N5        29.59R FOG
WOLF POINT     FOG       34  32  92 W5        29.58R VSB 1/4
PLENTYWOOD       N/A     32  32 100 W7        29.57R VSB 3/4 WCI  26
POPLAR           N/A     34  32  93 CALM      29.58R VSB 0
$$

MTZ028>42-056>058-200500-
SOUTHCENTRAL AND SOUTHEAST MONTANA

CITY           SKY/WX    TMP DP  RH WIND       PRES   REMARKS
BAKER          CLOUDY    42  35  76 W9        29.56R
BILLINGS       CLOUDY    42  27  55 NW6       29.63R
LIVINGSTON     CLOUDY    35  31  85 NW10      29.65S WCI  27
MILES CITY     CLOUDY    44  35  70 N10       29.58R
BIG TIMBER     CLEAR     39  28  65 W13G20    29.67R WCI  32
FORSYTH          N/A     45  36  70 CALM      29.60R
HARLOWTON      CLOUDY    35  26  67 W8        29.64R WCI  29
LAUREL           N/A     40  23  50 CALM      29.65R
$$

REGIONAL REPORTS...DAKOTAS

CITY           SKY/WX    TMP DP  RH WIND       PRES   REMARKS
WILLISTON      FOG       33  31  92 NW5       29.57R VSB 3/4
MINOT          CLOUDY    33  31  92 W5        29.52F
DICKINSON      CLOUDY    38  34  85 NW8       29.51R
BEACH            N/A    N/A N/A N/A MISG        N/A
CROSBY         CLOUDY    32  32 100 SW5       29.60R FOG
TIOGA          FOG       32  32 100 E3        29.54F VSB 1/4
WATFORD CITY     N/A     32  32 100 SW3       29.55R
BISMARCK       CLOUDY    38  35  89 NE7       29.52S
GRAND FORKS    PTCLDY    42  34  73 SE13      29.61S
FARGO          MOCLDY    52  48  86 SE20G32   29.62S
BUFFALO SD       N/A     46  37  71 NW9       29.48R
RAPID CITY     CLOUDY    58  33  39 SW12      29.56S
$$

REGIONAL REPORTS...WYOMING/IDAHO/WASHINGTON

CITY           SKY/WX    TMP DP  RH WIND       PRES   REMARKS
GILLETTE       CLOUDY    42  33  70 NE5       29.60R
SHERIDAN       LGT RAIN  44  34  67 W10G23    29.67R
BUFFALO WY     CLOUDY    43  33  68 N21G28    29.63R
CODY           CLOUDY    37  28  70 S10       29.71R WCI  30
YELLOWSTONE LA   N/A     24  20  84 VRB5      29.81R
IDAHO FALLS    CLEAR     35  29  78 S13       29.82R WCI  26
SALMON         CLOUDY    37  28  70 SW9       29.73R WCI  31
BOISE          MOCLDY    41  35  79 SE9       29.77R
SPOKANE        PTCLDY    34  32  92 SE7       29.64R WCI  28
$$

REGIONAL REPORTS...ALBERTA

CITY           SKY/WX    TMP DP  RH WIND       PRES   REMARKS
EDMONTON       CLOUDY    34  30  86 NW3       29.50S
CALGARY        CLOUDY    32  27  80 CALM      29.49S
LETHBRIDGE     PTCLDY    32  25  74 SW12      29.52R WCI  23
MEDICINE HAT   CLEAR     34  28  80 SW13G18   29.52R WCI  25
WATERTON GATE    N/A     32  27  80 SW16G23     N/A  WCI  21
CARDSTON         N/A     34  23  64 W3          N/A
MILK RIVER       N/A     32  25  74 S7          N/A  WCI  26
$$

REGIONAL REPORTS...SASKATCHEWAN

CITY           SKY/WX    TMP DP  RH WIND       PRES   REMARKS
SWIFT CURRENT  CLEAR     34  34 100 SW12      29.52R WCI  25
REGINA         DRIZZLE   32  32 100 SE6       29.57S WCI  26
SASKATOON      FLURRIES  34  32  93 S10       29.54F WCI  26
CYPRESS HILLS    N/A     32  27  80 W6          N/A  WCI  26
ROCKGLEN         N/A     34  32  93 NW1         N/A
ASSINIBOIA       N/A     34  34 100 W9          N/A  WCI  26
$$




USA.gov is the U.S. government's official web portal to all federal, state and local government web resources and services.